TimeEDT,TemperatureF,Dew PointF,Humidity,Sea Level PressureIn,VisibilityMPH,Wind Direction,Wind SpeedMPH,Gust SpeedMPH,PrecipitationIn,Events,Conditions,WindDirDegrees,DateUTC
12:00 AM,42.1,9.0,26,29.98,-9999.0,WNW,8.1,-,N/A,,Clear,300,2013-03-15 04:00:00
1:00 AM,41.0,10.0,28,29.99,-9999.0,WNW,9.2,-,N/A,,Clear,290,2013-03-15 05:00:00
4:00 AM,37.0,12.0,36,29.99,-9999.0,WNW,9.2,-,N/A,,Clear,290,2013-03-15 08:00:00
6:00 AM,37.0,12.9,37,30.00,-9999.0,West,8.1,-,N/A,,Clear,270,2013-03-15 10:00:00
7:00 AM,37.0,12.9,37,30.01,-9999.0,West,6.9,-,N/A,,Clear,260,2013-03-15 11:00:00
8:00 AM,37.9,14.0,38,30.01,-9999.0,West,8.1,-,N/A,,Clear,280,2013-03-15 12:00:00
9:00 AM,42.1,12.9,31,30.01,-9999.0,WNW,12.7,-,N/A,,Clear,290,2013-03-15 13:00:00
10:00 AM,42.1,12.0,29,29.99,-9999.0,West,11.5,-,N/A,,Clear,280,2013-03-15 14:00:00
11:00 AM,48.0,16.0,28,29.95,-9999.0,WSW,12.7,23.0,N/A,,Mostly Cloudy,240,2013-03-15 15:00:00
12:00 PM,51.1,19.0,28,29.91,-9999.0,WSW,15.0,26.5,N/A,,Clear,240,2013-03-15 16:00:00
2:00 PM,51.1,21.0,31,29.86,-9999.0,West,15.0,29.9,N/A,,Overcast,260,2013-03-15 18:00:00
3:00 PM,54.0,21.9,29,29.81,-9999.0,WSW,21.9,29.9,N/A,,Overcast,250,2013-03-15 19:00:00
4:00 PM,55.0,21.9,28,29.78,-9999.0,WSW,18.4,26.5,N/A,,Overcast,250,2013-03-15 20:00:00
4:57 PM,57.2,21.2,25,29.75,-9999.0,WSW,17.3,28.8,N/A,,Overcast,240,2013-03-15 20:57:00
5:00 PM,57.0,21.9,26,29.74,-9999.0,SW,20.7,29.9,N/A,,Overcast,230,2013-03-15 21:00:00
6:00 PM,55.9,21.9,27,29.73,-9999.0,WSW,16.1,26.5,N/A,,Clear,250,2013-03-15 22:00:00
7:00 PM,55.0,21.9,28,29.73,-9999.0,WSW,10.4,-,N/A,,Partly Cloudy,250,2013-03-15 23:00:00
8:00 PM,55.9,24.1,29,29.74,-9999.0,SW,6.9,-,N/A,,Overcast,230,2013-03-16 00:00:00
8:07 PM,-9999,-9999,N/A,-9999,-9999.0,North,-9999.0,-,N/A,,Unknown,0,2013-03-16 00:07:00
9:00 PM,55.0,23.0,29,29.75,-9999.0,WSW,6.9,-,N/A,,Overcast,250,2013-03-16 01:00:00
10:00 PM,54.0,24.1,31,29.76,-9999.0,WSW,8.1,-,N/A,,Overcast,250,2013-03-16 02:00:00
11:00 PM,51.1,24.1,35,29.77,-9999.0,WSW,3.5,-,N/A,,Partly Cloudy,250,2013-03-16 03:00:00